SCP
0 0 0 0 0 0 -0 -0 -0 -0 -0 -0 -0 -0 -0 -0 -0 -0 -0 -0 -0 -0 -0 -0 -0 -0 -0 -0 -0 -0 -0 -0 -0 -0 -0 -0 -0 -0 -0 -0 0 0 0
0 0 0 0 -0 -0 -0 -0 -0 -0 -0 -0 -0 -0 -0 -0 -0 -0 -0 -0 -0 -0 -0 -0 -0 -0 -0 -0 -0 -0 -0 -0 -0 -0 -0 -0 -0 -0 -0 -0 0 0 0
0 0 0 0 0 -0 -0 -0 -0 -0 -0 -0 -0 -0 -0 -0 -0 -0 -0 -0 -0 -0 -0 -0 -0 -0 0 0 0 -0 -0 -0 -0 -0 0 -0 0 0 0 0 0 0 0
0 0 0 0 -0 -0 -0 -0 -0 -0 -0 -0 -0 -0 -0 -0 -0 -0 -0 -0 -0 -0 -0 -0 0 0 0 0 -0 0 -0 -0 -0 -0 -0 -0 0 0 0 0 0 0 0
0 0 0 0 -0 -0 -0 -0 -0 -0 -0 -0 -0 -0 -0 -0 -0 -0 -0 0 -0 -0 -0 0 0 0 0 0 0 -0 -0 -0 -0 0 -0 0 0 0 0 0 0 0 0
0 0 0 0 -0 -0 -0 -0 -0 -0 -0 -0 -0 -0 -0 -0 -0 -0 -0 0 -0 0 0 0 0 0 0 0 0 -0 0 0 0 0 0 0 0 0 0 0 0 0 0
0 0 0 0 -0 -0 -0 -0 -0 -0 -0 -0 -0 -0 -0 -0 -0 -0 -0 0 0 0 0 0 0 0 0 0 0 0 0 0 0 0 0 0 0 0 0 0 0 0 0
0 0 0 0 0 -0 -0 -0 -0 -0 -0 -0 -0 -0 -0 -0 -0 -0 -0 -0 -0 0 0 0 0 0 0 0 0 0 0 0 0 0 0 0 0 0 0 0 0 0 0
0 0 0 0 0 0 0 0 0 0 0 0 0 0 0 0 -0 -0 0 -0 0 0 0 0 0 0 0 0 0 0 0 0 0 0 0 0 0 0 0 0 0 0 0
0 0 0 0 0 0 0 0 0 0 0 0 0 0 0 0 0 0 0 0 0 0 0 0 0 0 0 0 0 0 0 0 0 0 0 0 0 0 0 0 0 0 0
0 0 0 0 0 0 0 0 0 0 0 0 0 0 0 0 0 0 0 0 0 0 0 0 0 0 0 0 0 0 0 0 0 0 0 0 0 0 0 0 0 0 0
0 0 0 0 0 0 0 0 0 0 0 0 0 0 0 0 0 0 0 0 0 0 0 0 0 0 0 0 0 0 0 0 0 0 0 0 0 0 0 0 0 0 0
0 0 0 0 0 0 0 0 0 0 0 0 0 0 0 0 0 0 0 0 0 0 0 0 0 0 0 0 0 0 0 0 0 0 0 0 0 0 0 0 0 0 0
0 0 0 0 0 0 0 0 0 0 0 0 0 0 0 0 0 0 0 0 0 0 0 0 0 0 0 0 0 0 0 0 0 0 0 0 0 0 0 0 0 0 0
0 0 0 0 0 0 0 0 0 0 0 0 0 0 0 0 0 0 0 0 0 0 0 0 0 0 0 0 0 0 0 0 0 0 0 0 0 0 0 0 0 0 0
0 0 0 0 0 0 0 0 0 0 0 0 0 0 0 0 0 0 0 0 0 0 0 0 0 0 0 0 0 0 0 0 0 0 0 0 0 0 0 0 0 0 0
0 0 0 0 0 0 0 0 0 0 0 0 0 0 0 0 0 0 0 0 0 0 0 0 0 0 0 0 0 0 0 0 0 0 0 0 0 0 0 0 0 0 0
0 0 0 0 0 0 0 0 0 0 0 0 0 0 0 0 0 0 0 0 0 0 0 0 0 0 0 0 0 0 0 0 0 0 0 0 0 0 0 0 0 0 0
0 0 0 0 0 0 0 0 0 0 0 0 0 0 0 0 0 0 0 0 0 0 0 0 0 0 0 0 0 0 0 0 0 0 0 0 0 0 0 0 0 0 0
0 0 0 0 0 0 0 0 0 0 0 0 0 0 0 0 0 0 0 0 0 0 0 0 0 0 0 0 0 0 0 0 0 0 0 0 0 0 0 0 0 0 0
0 0 0 0 0 0 0 0 0 0 0 0 0 0 0 0 0 0 0 0 0 0 0 0 0 0 0 0 0 0 0 0 0 0 0 0 0 0 0 0 0 0 0
0 0 0 0 0 0 0 0 0 0 0 0 0 0 0 0 0 0 0 0 0 0 0 0 0 0 0 0 0 0 0 0 0 0 0 0 0 0 0 0 0 0 0
0 0 0 0 0 0 0 0 0 0 0 0 0 0 0 0 0 0 0 0 0 0 0 0 0 0 0 0 0 0 0 0 0 0 0 0 0 0 0 0 0 0 0
0 0 0 0 0 0 0 0 0 0 0 0 0 0 0 0 0 0 0 0 0 0 0 0 0 0 0 0 0 0 0 0 0 0 0 0 0 0 0 0 0 0 0
0 0 0 0 0 0 0 0 0 0 0 0 0 0 0 0 0 0 0 0 0 0 0 0 0 0 0 0 0 0 0 0 0 0 0 0 0 0 0 0 0 0 0
0 0 0 0 0 0 0 0 0 0 0 0 0 0 0 0 0 0 0 0 0 0 0 0 0 0 0 0 0 0 0 0 0 0 0 0 0 0 0 0 0 0 0
Wind_Speed_500mb
23 22 21 20 17 18 18 11 6 5 4 7 13 11 13 19 19 25 27 20 14 16 22 23 23 21 24 32 30 29 25 25 22 22 18 18 15 11 10 8 8 10 14
17 25 22 18 18 16 20 10 3 2 2 4 13 17 14 13 14 22 29 23 16 23 21 21 22 24 31 33 30 28 20 15 14 13 9 6 6 6 3 5 8 15 21
20 23 23 18 18 19 15 6 4 4 5 5 10 25 18 8 8 16 17 18 20 20 22 20 23 22 26 24 24 20 12 17 10 3 9 2 4 8 8 12 15 20 21
17 22 23 19 20 19 12 7 5 4 6 7 12 30 20 20 12 13 19 19 18 19 18 17 19 19 22 19 24 19 14 12 9 2 9 5 2 11 11 11 16 18 18
20 23 24 21 22 17 13 10 6 4 3 1 11 28 18 14 16 10 11 19 17 17 17 15 15 16 20 20 21 16 13 9 4 5 11 6 3 7 8 9 10 12 15
22 24 23 22 22 17 14 13 7 4 2 3 9 20 19 15 15 14 9 16 14 15 16 15 13 14 17 19 19 13 10 6 6 7 10 7 2 7 7 6 6 7 13
21 25 24 23 22 19 18 15 10 6 4 2 7 15 22 18 14 16 13 16 20 15 16 15 12 11 13 15 16 16 12 7 8 5 5 9 3 4 5 4 5 7 11
17 21 24 24 22 21 20 18 13 9 6 6 5 9 21 19 18 23 19 18 13 17 15 13 11 10 11 13 13 14 14 13 9 10 13 6 8 7 5 5 5 5 4
18 20 21 24 24 23 23 23 19 13 11 9 10 11 15 17 21 22 20 17 18 20 18 14 11 10 10 12 14 15 13 8 5 9 6 8 11 10 9 7 7 6 4
20 22 23 25 27 27 27 26 23 17 16 14 12 12 15 20 19 22 27 24 18 17 19 17 16 14 11 12 15 18 15 12 10 9 7 11 14 14 13 11 9 7 4
31 27 28 29 32 31 30 30 28 24 21 20 19 16 18 21 23 23 25 29 25 25 22 21 18 16 16 16 17 21 19 16 16 16 15 15 18 20 17 15 12 9 8
39 35 31 30 33 35 37 34 33 31 27 27 26 25 21 22 23 25 25 26 29 27 26 24 22 20 20 21 21 22 24 23 22 22 20 20 22 22 19 18 16 14 12
37 39 40 32 31 35 39 37 38 38 36 33 33 31 29 27 27 31 32 33 32 31 29 28 28 26 24 25 25 25 26 26 23 23 22 22 22 22 21 21 22 19 17
45 45 44 42 37 38 40 42 38 40 39 40 37 37 38 36 34 34 34 36 36 34 32 32 32 31 31 30 30 30 30 29 27 24 24 24 21 21 21 21 23 23 21
54 51 50 49 48 40 43 46 46 44 42 39 39 42 45 43 41 39 38 39 38 38 37 37 37 37 38 37 36 36 34 34 32 29 29 28 27 25 23 22 25 25 23
46 50 54 55 55 50 43 44 49 51 48 45 43 45 48 48 44 41 42 42 43 41 40 40 41 41 42 42 42 41 40 39 38 37 36 35 34 32 28 25 29 31 30
47 46 50 59 59 58 52 45 45 51 54 52 50 48 49 51 50 45 44 45 45 43 42 45 45 47 49 49 51 47 46 44 44 43 44 43 42 41 36 33 31 31 35
56 54 48 53 62 65 59 53 49 47 51 57 55 54 53 55 53 54 55 53 48 48 48 49 50 51 53 53 55 53 51 47 47 50 49 49 47 49 46 41 39 38 36
52 55 55 49 54 58 64 64 58 55 52 55 56 58 58 58 59 60 62 61 57 56 54 55 55 57 58 57 57 57 55 55 53 54 57 56 52 49 53 48 46 45 46
51 49 52 57 51 52 54 59 68 68 63 57 58 62 61 60 62 65 67 68 65 64 64 62 62 61 62 60 59 64 61 62 62 63 65 63 61 57 56 55 54 51 50
55 53 52 57 56 54 56 60 65 72 73 67 64 59 63 62 66 68 71 73 71 71 71 69 67 68 68 64 62 70 72 72 74 75 72 70 71 66 66 61 62 60 56
66 61 51 49 52 60 62 63 66 69 73 66 66 64 60 59 65 69 75 76 74 72 72 73 73 75 74 72 68 70 68 71 76 77 77 80 77 72 73 70 68 66 64
45 53 52 48 50 64 67 69 67 65 67 61 61 65 63 66 72 75 78 81 83 78 76 73 71 75 81 79 76 64 26 33 45 47 39 46 59 64 64 64 67 69 67
19 25 35 44 46 51 54 59 62 63 69 61 65 62 67 71 62 66 81 72 84 89 85 83 78 77 75 83 85 85 84 84 56 55 47 32 41 48 51 57 59 65 67
5 5 6 2 10 21 32 39 45 50 55 59 66 66 68 72 67 56 66 83 77 79 84 89 90 91 85 83 85 89 87 86 87 89 79 79 84 81 75 72 69 67 66
18 13 11 5 0 5 11 17 22 31 42 51 58 63 70 73 73 70 66 66 71 70 70 78 83 92 94 94 92 90 92 75 70 78 83 92 96 95 89 83 78 76 72
Wind_Direction_500mb
176 173 173 174 178 171 159 148 131 129 79 114 150 129 109 123 158 128 122 129 150 143 123 119 111 128 114 119 117 117 114 106 112 110 112 104 114 101 89 52 28 36 46
183 178 177 177 187 185 173 171 182 77 108 103 144 131 103 105 107 129 141 149 134 121 110 111 118 115 119 117 115 114 116 110 121 94 21 101 119 90 53 65 53 69 74
171 184 182 177 186 189 188 197 210 266 272 268 167 142 134 138 136 120 128 129 124 125 113 109 116 130 128 124 110 99 113 108 106 125 304 74 114 67 72 77 79 79 84
185 187 187 182 187 194 210 207 208 254 256 259 167 148 158 181 186 156 156 141 167 120 124 127 132 131 131 120 119 114 105 113 108 1 330 40 357 84 80 86 87 90 86
193 189 190 191 191 202 212 203 209 255 204 225 160 163 166 157 176 189 168 174 153 142 130 133 139 139 141 126 109 105 125 123 127 281 284 316 61 72 80 83 83 87 89
194 189 195 197 194 203 221 206 218 261 230 157 173 169 156 180 159 187 209 163 174 146 143 140 145 146 150 146 132 129 137 163 212 274 296 351 85 69 71 70 66 72 83
203 193 199 202 202 207 206 217 228 252 254 186 143 170 166 190 176 199 204 180 177 167 156 156 158 158 169 170 174 167 184 196 264 285 322 350 340 40 43 49 32 56 93
225 207 204 206 208 212 210 212 223 245 231 210 183 172 175 189 189 201 196 213 202 178 173 173 171 173 181 194 197 206 216 240 251 299 317 352 333 334 336 345 10 31 65
219 234 225 218 216 216 220 216 223 229 227 221 217 196 202 198 198 202 207 213 209 195 194 190 189 198 203 211 217 229 251 272 287 306 313 337 329 312 314 323 338 358 9
235 242 247 239 231 228 228 227 227 223 224 227 225 223 208 216 216 208 213 201 213 207 209 203 207 209 219 229 232 244 257 274 286 298 311 324 319 301 301 309 320 334 315
229 234 246 254 245 237 236 237 235 230 227 230 235 238 231 222 226 222 213 224 225 219 212 213 220 221 225 232 236 242 253 266 281 285 288 303 311 303 290 291 299 303 295
235 236 241 250 252 251 239 238 241 241 239 238 237 242 247 239 233 236 235 230 234 234 229 224 230 232 233 237 239 242 252 262 270 277 279 285 296 297 288 283 286 288 287
248 245 245 249 249 253 248 243 243 243 245 242 241 240 244 249 250 242 238 238 239 240 235 231 234 239 243 246 245 243 249 256 264 269 276 275 281 288 285 280 278 278 278
250 251 249 251 253 256 251 252 250 248 248 248 246 245 243 245 249 252 249 245 244 245 245 243 245 246 248 250 251 252 254 262 267 265 271 273 272 280 283 276 276 276 271
253 254 253 251 253 259 254 253 254 252 250 252 254 250 249 252 254 254 247 244 245 246 249 250 250 250 252 255 256 257 259 262 266 266 266 268 266 269 274 262 260 266 270
263 257 254 254 254 255 258 259 259 260 258 259 259 257 252 254 257 257 252 250 250 250 254 257 256 255 256 257 258 259 262 262 264 266 266 264 261 262 264 268 254 260 256
278 275 257 254 254 253 256 259 262 264 264 264 263 262 255 254 258 260 260 258 256 257 259 259 256 254 253 253 257 259 261 264 265 266 267 268 261 258 258 261 265 254 256
278 273 270 255 254 253 255 258 261 266 266 266 266 266 260 257 259 262 265 268 266 262 261 259 257 257 256 256 258 260 260 263 265 266 268 269 266 258 255 254 257 260 257
288 275 268 265 257 254 257 260 260 263 266 266 267 269 266 263 262 264 268 272 272 268 264 263 262 259 259 260 262 264 264 263 264 266 267 268 269 263 258 256 254 256 259
284 284 270 263 260 258 258 260 260 259 260 260 266 266 268 268 266 267 268 270 271 270 267 265 265 264 264 266 267 268 267 266 265 265 266 266 267 266 265 261 259 257 256
278 273 268 260 259 257 257 256 257 260 259 260 261 266 275 278 273 269 268 270 269 268 269 269 269 268 267 266 268 269 269 268 266 265 263 262 264 264 267 269 262 260 258
270 270 269 271 273 266 263 264 263 267 265 267 270 270 268 269 275 278 271 270 270 269 270 269 267 267 268 265 261 268 276 277 272 269 266 264 265 266 266 268 269 264 261
274 258 266 269 268 271 266 262 266 268 267 271 274 273 275 269 266 275 279 274 271 270 268 270 269 266 266 268 263 253 258 261 283 288 285 275 267 265 267 268 267 266 264
287 274 262 264 261 263 269 269 268 271 272 280 283 284 283 284 283 283 285 280 281 276 269 268 271 270 268 265 265 260 255 257 266 283 281 281 271 268 271 267 267 268 267
106 56 50 346 266 263 265 268 270 271 275 280 282 284 284 285 285 279 281 289 288 283 282 277 273 269 268 268 265 265 264 262 260 259 272 274 276 276 275 273 269 272 270
100 101 96 93 192 277 270 268 268 273 276 277 279 283 283 285 286 284 279 272 274 278 278 278 278 276 273 270 267 264 263 257 261 260 260 264 270 279 280 280 279 276 276
Wind_Speed_850mb
23 22 21 20 17 18 18 11 6 5 4 7 13 11 13 19 19 25 27 20 14 16 22 23 23 21 24 32 30 29 25 25 22 22 18 18 15 11 10 8 8 10 14
17 25 22 18 18 16 20 10 3 2 2 4 13 17 14 13 14 22 29 23 16 23 21 21 22 24 31 33 30 28 20 15 14 13 9 6 6 6 3 5 8 15 21
20 23 23 18 18 19 15 6 4 4 5 5 10 25 18 8 8 16 17 18 20 20 22 20 23 22 26 24 24 20 12 17 10 3 9 2 4 8 8 12 15 20 21
17 22 23 19 20 19 12 7 5 4 6 7 12 30 20 20 12 13 19 19 18 19 18 17 19 19 22 19 24 19 14 12 9 2 9 5 2 11 11 11 16 18 18
20 23 24 21 22 17 13 10 6 4 3 1 11 28 18 14 16 10 11 19 17 17 17 15 15 16 20 20 21 16 13 9 4 5 11 6 3 7 8 9 10 12 15
22 24 23 22 22 17 14 13 7 4 2 3 9 20 19 15 15 14 9 16 14 15 16 15 13 14 17 19 19 13 10 6 6 7 10 7 2 7 7 6 6 7 13
21 25 24 23 22 19 18 15 10 6 4 2 7 15 22 18 14 16 13 16 20 15 16 15 12 11 13 15 16 16 12 7 8 5 5 9 3 4 5 4 5 7 11
17 21 24 24 22 21 20 18 13 9 6 6 5 9 21 19 18 23 19 18 13 17 15 13 11 10 11 13 13 14 14 13 9 10 13 6 8 7 5 5 5 5 4
18 20 21 24 24 23 23 23 19 13 11 9 10 11 15 17 21 22 20 17 18 20 18 14 11 10 10 12 14 15 13 8 5 9 6 8 11 10 9 7 7 6 4
20 22 23 25 27 27 27 26 23 17 16 14 12 12 15 20 19 22 27 24 18 17 19 17 16 14 11 12 15 18 15 12 10 9 7 11 14 14 13 11 9 7 4
31 27 28 29 32 31 30 30 28 24 21 20 19 16 18 21 23 23 25 29 25 25 22 21 18 16 16 16 17 21 19 16 16 16 15 15 18 20 17 15 12 9 8
39 35 31 30 33 35 37 34 33 31 27 27 26 25 21 22 23 25 25 26 29 27 26 24 22 20 20 21 21 22 24 23 22 22 20 20 22 22 19 18 16 14 12
37 39 40 32 31 35 39 37 38 38 36 33 33 31 29 27 27 31 32 33 32 31 29 28 28 26 24 25 25 25 26 26 23 23 22 22 22 22 21 21 22 19 17
45 45 44 42 37 38 40 42 38 40 39 40 37 37 38 36 34 34 34 36 36 34 32 32 32 31 31 30 30 30 30 29 27 24 24 24 21 21 21 21 23 23 21
54 51 50 49 48 40 43 46 46 44 42 39 39 42 45 43 41 39 38 39 38 38 37 37 37 37 38 37 36 36 34 34 32 29 29 28 27 25 23 22 25 25 23
46 50 54 55 55 50 43 44 49 51 48 45 43 45 48 48 44 41 42 42 43 41 40 40 41 41 42 42 42 41 40 39 38 37 36 35 34 32 28 25 29 31 30
47 46 50 59 59 58 52 45 45 51 54 52 50 48 49 51 50 45 44 45 45 43 42 45 45 47 49 49 51 47 46 44 44 43 44 43 42 41 36 33 31 31 35
56 54 48 53 62 65 59 53 49 47 51 57 55 54 53 55 53 54 55 53 48 48 48 49 50 51 53 53 55 53 51 47 47 50 49 49 47 49 46 41 39 38 36
52 55 55 49 54 58 64 64 58 55 52 55 56 58 58 58 59 60 62 61 57 56 54 55 55 57 58 57 57 57 55 55 53 54 57 56 52 49 53 48 46 45 46
51 49 52 57 51 52 54 59 68 68 63 57 58 62 61 60 62 65 67 68 65 64 64 62 62 61 62 60 59 64 61 62 62 63 65 63 61 57 56 55 54 51 50
55 53 52 57 56 54 56 60 65 72 73 67 64 59 63 62 66 68 71 73 71 71 71 69 67 68 68 64 62 70 72 72 74 75 72 70 71 66 66 61 62 60 56
66 61 51 49 52 60 62 63 66 69 73 66 66 64 60 59 65 69 75 76 74 72 72 73 73 75 74 72 68 70 68 71 76 77 77 80 77 72 73 70 68 66 64
45 53 52 48 50 64 67 69 67 65 67 61 61 65 63 66 72 75 78 81 83 78 76 73 71 75 81 79 76 64 26 33 45 47 39 46 59 64 64 64 67 69 67
19 25 35 44 46 51 54 59 62 63 69 61 65 62 67 71 62 66 81 72 84 89 85 83 78 77 75 83 85 85 84 84 56 55 47 32 41 48 51 57 59 65 67
5 5 6 2 10 21 32 39 45 50 55 59 66 66 68 72 67 56 66 83 77 79 84 89 90 91 85 83 85 89 87 86 87 89 79 79 84 81 75 72 69 67 66
18 13 11 5 0 5 11 17 22 31 42 51 58 63 70 73 73 70 66 66 71 70 70 78 83 92 94 94 92 90 92 75 70 78 83 92 96 95 89 83 78 76 72
Wind_Direction_850mb
176 173 173 174 178 171 159 148 131 129 79 114 150 129 109 123 158 128 122 129 150 143 123 119 111 128 114 119 117 117 114 106 112 110 112 104 114 101 89 52 28 36 46
183 178 177 177 187 185 173 171 182 77 108 103 144 131 103 105 107 129 141 149 134 121 110 111 118 115 119 117 115 114 116 110 121 94 21 101 119 90 53 65 53 69 74
171 184 182 177 186 189 188 197 210 266 272 268 167 142 134 138 136 120 128 129 124 125 113 109 116 130 128 124 110 99 113 108 106 125 304 74 114 67 72 77 79 79 84
185 187 187 182 187 194 210 207 208 254 256 259 167 148 158 181 186 156 156 141 167 120 124 127 132 131 131 120 119 114 105 113 108 1 330 40 357 84 80 86 87 90 86
193 189 190 191 191 202 212 203 209 255 204 225 160 163 166 157 176 189 168 174 153 142 130 133 139 139 141 126 109 105 125 123 127 281 284 316 61 72 80 83 83 87 89
194 189 195 197 194 203 221 206 218 261 230 157 173 169 156 180 159 187 209 163 174 146 143 140 145 146 150 146 132 129 137 163 212 274 296 351 85 69 71 70 66 72 83
203 193 199 202 202 207 206 217 228 252 254 186 143 170 166 190 176 199 204 180 177 167 156 156 158 158 169 170 174 167 184 196 264 285 322 350 340 40 43 49 32 56 93
225 207 204 206 208 212 210 212 223 245 231 210 183 172 175 189 189 201 196 213 202 178 173 173 171 173 181 194 197 206 216 240 251 299 317 352 333 334 336 345 10 31 65
219 234 225 218 216 216 220 216 223 229 227 221 217 196 202 198 198 202 207 213 209 195 194 190 189 198 203 211 217 229 251 272 287 306 313 337 329 312 314 323 338 358 9
235 242 247 239 231 228 228 227 227 223 224 227 225 223 208 216 216 208 213 201 213 207 209 203 207 209 219 229 232 244 257 274 286 298 311 324 319 301 301 309 320 334 315
229 234 246 254 245 237 236 237 235 230 227 230 235 238 231 222 226 222 213 224 225 219 212 213 220 221 225 232 236 242 253 266 281 285 288 303 311 303 290 291 299 303 295
235 236 241 250 252 251 239 238 241 241 239 238 237 242 247 239 233 236 235 230 234 234 229 224 230 232 233 237 239 242 252 262 270 277 279 285 296 297 288 283 286 288 287
248 245 245 249 249 253 248 243 243 243 245 242 241 240 244 249 250 242 238 238 239 240 235 231 234 239 243 246 245 243 249 256 264 269 276 275 281 288 285 280 278 278 278
250 251 249 251 253 256 251 252 250 248 248 248 246 245 243 245 249 252 249 245 244 245 245 243 245 246 248 250 251 252 254 262 267 265 271 273 272 280 283 276 276 276 271
253 254 253 251 253 259 254 253 254 252 250 252 254 250 249 252 254 254 247 244 245 246 249 250 250 250 252 255 256 257 259 262 266 266 266 268 266 269 274 262 260 266 270
263 257 254 254 254 255 258 259 259 260 258 259 259 257 252 254 257 257 252 250 250 250 254 257 256 255 256 257 258 259 262 262 264 266 266 264 261 262 264 268 254 260 256
278 275 257 254 254 253 256 259 262 264 264 264 263 262 255 254 258 260 260 258 256 257 259 259 256 254 253 253 257 259 261 264 265 266 267 268 261 258 258 261 265 254 256
278 273 270 255 254 253 255 258 261 266 266 266 266 266 260 257 259 262 265 268 266 262 261 259 257 257 256 256 258 260 260 263 265 266 268 269 266 258 255 254 257 260 257
288 275 268 265 257 254 257 260 260 263 266 266 267 269 266 263 262 264 268 272 272 268 264 263 262 259 259 260 262 264 264 263 264 266 267 268 269 263 258 256 254 256 259
284 284 270 263 260 258 258 260 260 259 260 260 266 266 268 268 266 267 268 270 271 270 267 265 265 264 264 266 267 268 267 266 265 265 266 266 267 266 265 261 259 257 256
278 273 268 260 259 257 257 256 257 260 259 260 261 266 275 278 273 269 268 270 269 268 269 269 269 268 267 266 268 269 269 268 266 265 263 262 264 264 267 269 262 260 258
270 270 269 271 273 266 263 264 263 267 265 267 270 270 268 269 275 278 271 270 270 269 270 269 267 267 268 265 261 268 276 277 272 269 266 264 265 266 266 268 269 264 261
274 258 266 269 268 271 266 262 266 268 267 271 274 273 275 269 266 275 279 274 271 270 268 270 269 266 266 268 263 253 258 261 283 288 285 275 267 265 267 268 267 266 264
287 274 262 264 261 263 269 269 268 271 272 280 283 284 283 284 283 283 285 280 281 276 269 268 271 270 268 265 265 260 255 257 266 283 281 281 271 268 271 267 267 268 267
106 56 50 346 266 263 265 268 270 271 275 280 282 284 284 285 285 279 281 289 288 283 282 277 273 269 268 268 265 265 264 262 260 259 272 274 276 276 275 273 269 272 270
100 101 96 93 192 277 270 268 268 273 276 277 279 283 283 285 286 284 279 272 274 278 278 278 278 276 273 270 267 264 263 257 261 260 260 264 270 279 280 280 279 276 276